Location: Fort Wayne
(41.1310°N, 85.1290°W)
Time: 18:17:24
(UTC-04:00)

Courier 1B Rocket - All Passes

Search period start: 28 August 2015 00:00
Search period end: 07 September 2015 00:00
Orbit: 921 x 1202 km, 28.2° (Epoch: 27 August)

Date Brightness Start Highest point End Pass type
(mag) Time Alt. Az. Time Alt. Az. Time Alt. Az.
28 Aug - 01:02:51 10° WSW 01:09:09 30° S 01:15:42 10° ESE night (unlit)
28 Aug - 02:56:17 10° WSW 03:02:03 23° SSW 03:07:51 10° SSE night (unlit)
28 Aug - 22:10:36 10° SSW 22:15:29 21° SSE 22:20:42 10° ESE visible
29 Aug - 00:02:07 10° SW 00:08:13 30° S 00:14:38 10° ESE visible
29 Aug - 01:55:05 10° WSW 02:01:07 26° S 02:07:18 10° SE night (unlit)
29 Aug - 03:50:00 10° SW 03:53:55 14° SSW 03:57:37 10° S night (unlit)
29 Aug - 21:10:57 10° SSW 21:14:44 16° SSE 21:18:49 10° ESE visible
29 Aug - 23:01:35 10° SW 23:07:20 27° S 23:13:26 10° ESE visible
30 Aug - 00:54:05 10° WSW 01:00:11 29° S 01:06:31 10° SE night (unlit)
30 Aug - 02:48:02 10° WSW 02:53:01 18° SSW 02:57:56 10° SSE night (unlit)
30 Aug - 20:12:27 10° SSE 20:14:03 11° SSE 20:15:55 10° SE daylight
30 Aug - 22:01:15 10° SW 22:06:30 24° SSE 22:12:06 10° ESE visible
30 Aug - 23:53:17 10° WSW 23:59:16 29° S 00:05:34 10° SE visible
31 Aug - 01:46:37 10° WSW 01:52:07 22° SSW 01:57:42 10° SSE night (unlit)
31 Aug - 21:01:13 10° SSW 21:05:45 20° SSE 21:10:35 10° ESE visible
31 Aug - 22:52:38 10° SW 22:58:23 28° S 23:04:30 10° ESE visible
01 Sep - 00:45:30 10° WSW 00:51:13 25° S 00:57:08 10° SE visible
01 Sep - 02:40:26 10° SW 02:43:59 14° SSW 02:47:21 10° S night (unlit)
01 Sep - 20:01:37 10° S 20:05:03 15° SSE 20:08:44 10° SE daylight
01 Sep - 21:52:10 10° SW 21:57:34 26° S 22:03:19 10° ESE visible
01 Sep - 23:44:36 10° WSW 23:50:20 27° S 23:56:21 10° SE visible
02 Sep - 01:38:30 10° WSW 01:43:07 17° SSW 01:47:43 10° SSE night (unlit)
02 Sep - 19:03:30 10° SSE 19:04:24 10° SSE 19:05:32 10° SE daylight
02 Sep - 20:51:52 10° SW 20:56:48 23° SSE 21:02:02 10° ESE visible
02 Sep - 22:43:51 10° WSW 22:49:29 28° S 22:55:26 10° SE visible
03 Sep - 00:37:08 10° WSW 00:42:15 21° SSW 00:47:30 10° SSE visible
03 Sep - 19:51:51 10° SSW 19:56:06 19° SSE 20:00:34 10° ESE daylight
03 Sep - 21:43:15 10° SW 21:48:40 27° S 21:54:24 10° ESE visible
03 Sep - 23:36:04 10° WSW 23:41:24 24° S 23:46:57 10° SE visible
04 Sep - 01:31:09 10° SW 01:34:07 13° SSW 01:36:54 10° S night (unlit)
04 Sep - 18:52:17 10° S 18:55:26 14° SSE 18:58:47 10° SE daylight
04 Sep - 20:42:48 10° SW 20:47:54 25° S 20:53:17 10° ESE visible
04 Sep - 22:35:13 10° WSW 22:40:35 26° S 22:46:13 10° SE visible
05 Sep - 00:29:09 10° SW 00:33:17 16° SSW 00:37:25 10° SSE visible
05 Sep - 17:54:42 10° SSE 17:54:48 10° SSE 17:55:07 10° SSE daylight
05 Sep - 19:42:31 10° SW 19:47:11 22° SSE 19:52:05 10° ESE daylight
05 Sep - 21:34:30 10° WSW 21:39:47 26° S 21:45:22 10° SE visible
05 Sep - 23:27:47 10° WSW 23:32:28 19° SSW 23:37:17 10° SSE visible
06 Sep - 18:42:28 10° SSW 18:46:31 18° SSE 18:50:44 10° ESE daylight
06 Sep - 20:33:54 10° SW 20:39:02 26° S 20:44:25 10° ESE visible
06 Sep - 22:26:45 10° WSW 22:31:41 22° S 22:36:49 10° SE visible
